This is the latest recevied weather packets stored in our database for station/object N2WH. If no packets are shown the sender has not sent any weather packets the latest 10 day(s).
| Time | Temp. | Humidity | Pressure | Rain* | Wind** | Luminosity | Snow |
|---|---|---|---|---|---|---|---|
| 1778112407 | 16.11° C | 98% | 1008.5 hPa | 0 mm | - | 0 W/m² | - |
| 1778112102 | 16.11° C | 98% | 1008.7 hPa | 0 mm | - | 0 W/m² | - |
| 1778111800 | 16.11° C | 98% | 1008.7 hPa | 0 mm | - | 1 W/m² | - |
| 1778111500 | 16.11° C | 98% | 1008.6 hPa | 0 mm | - | 3 W/m² | - |
| 1778111197 | 16.11° C | 98% | 1008.6 hPa | 0 mm | - | 3 W/m² | - |
| 1778110894 | 16.11° C | 98% | 1008.5 hPa | 0 mm | - | 2 W/m² | - |
| 1778110591 | 16.11° C | 98% | 1008.5 hPa | 0 mm | - | 6 W/m² | - |
| 1778110288 | 16.11° C | 98% | 1008.3 hPa | 0 mm | - | 7 W/m² | - |
| 1778109984 | 16.11° C | 97% | 1008.4 hPa | 0 mm | - | 9 W/m² | - |
| 1778109680 | 16.11° C | 97% | 1008.3 hPa | 0 mm | - | 13 W/m² | - |
| 1778109377 | 16.11° C | 97% | 1008.3 hPa | 0 mm | - | 19 W/m² | - |
| 1778109075 | 16.11° C | 97% | 1008.5 hPa | 0 mm | - | 22 W/m² | - |
| 1778108772 | 16.11° C | 97% | 1008.5 hPa | 0 mm | - | 26 W/m² | - |
| 1778108469 | 16.11° C | 97% | 1008.3 hPa | 0 mm | - | 29 W/m² | - |
| 1778108165 | 16.11° C | 97% | 1008.6 hPa | 0 mm | - | 22 W/m² | - |
| 1778107862 | 16.11° C | 97% | 1008.4 hPa | 0 mm | - | 27 W/m² | - |
| 1778107559 | 16.11° C | 97% | 1008.5 hPa | 0 mm | - | 24 W/m² | - |
| 1778107255 | 16.11° C | 97% | 1008.3 hPa | 0 mm | - | 26 W/m² | - |
| 1778106951 | 16.11° C | 97% | 1008.2 hPa | 0 mm | - | 28 W/m² | - |
| 1778106648 | 16.11° C | 97% | 1008.5 hPa | 0 mm | - | 19 W/m² | - |
| 1778106345 | 16.11° C | 96% | 1008.5 hPa | 0 mm | - | 16 W/m² | - |
| 1778106041 | 16.11° C | 96% | 1008.3 hPa | 0 mm | - | 15 W/m² | - |
| 1778105739 | 16.11° C | 96% | 1008.3 hPa | 0 mm | - | 23 W/m² | - |
| 1778105437 | 16.11° C | 96% | 1008 hPa | 0 mm | - | 23 W/m² | - |
| 1778105132 | 16.11° C | 96% | 1008.1 hPa | 0 mm | - | 29 W/m² | - |
* Rain latest hour (hover to see other rain measurements)
** Current wind speed in m/s (hover to see current wind gust speed)